Location: Antioch Baptist Church
(32.6696°N, 85.7327°W)
Time: 09:37:33
(UTC+00:00)

Cosmos-2242 - Pass Details

Date: 29 October 2020
Orbit: 592 x 616 km, 82.5° (Epoch: 26 November)

Event Time Altitude Azimuth Distance (km) Brightness Sun altitude
Rises 11:08:29 0° 15° (NNE) 2,879 6.6 -11.1°
Reaches altitude 10° 11:11:31 10° 37° (NE) 1,974 6.0 -10.5°
Maximum altitude 11:14:11 16° 75° (ENE) 1,624 6.3 -9.9°
Drops below altitude 10° 11:16:51 10° 113° (ESE) 1,971 7.1 -9.4°
Sets 11:19:51 0° 136° (SE) 2,873 7.5 -8.7°
